EW5309 Weather Reports


Display with metric or nautical units.
time (UTC)temp
F
wind
direction
speed
MPH
gust
MPH
rain 1hr
in
rain 24hr
in
rain mn
in
humidity
%
barometer
mb
20260504202134 81 0.0 0.0 0.00 0.00 0.00 34 1008.5
20260504201633 81 0.0 0.0 0.00 0.00 0.00 32 1008.6
20260504201133 81 0.0 0.0 0.00 0.00 0.00 28 1008.8
20260504200131 81 0.0 0.0 0.00 0.00 0.00 34 1008.9
20260504195628 80 0.0 0.0 0.00 0.00 0.00 31 1008.9
20260504195107 80 0.0 0.0 0.00 0.00 0.00 32 1008.9
20260504194609 80 0.0 0.0 0.00 0.00 0.00 31 1009.1
20260504194108 80 0.0 0.0 0.00 0.00 0.00 33 1008.9
20260504193606 79 0.0 0.0 0.00 0.00 0.00 32 1009.2
20260504193108 79 0.0 0.0 0.00 0.00 0.00 28 1009.3
20260504192605 79 0.0 0.0 0.00 0.00 0.00 30 1009.4
20260504191604 79 0.0 0.0 0.00 0.00 0.00 30 1009.5
20260504191105 79 0.0 0.0 0.00 0.00 0.00 31 1009.6
20260504190603 78 0.0 0.0 0.00 0.00 0.00 31 1009.7
20260504185604 79 0.0 0.0 0.00 0.00 0.00 32 1010.0
20260504185105 79 0.0 0.0 0.00 0.00 0.00 35 1010.1
20260504184604 79 0.0 0.0 0.00 0.00 0.00 38 1010.2
20260504184103 79 0.0 0.0 0.00 0.00 0.00 35 1010.2
20260504183602 78 0.0 0.0 0.00 0.00 0.00 36 1010.2
20260504183102 78 0.0 0.0 0.00 0.00 0.00 32 1010.3
20260504182602 78 0.0 0.0 0.00 0.00 0.00 30 1010.4
20260504182103 78 0.0 0.0 0.00 0.00 0.00 33 1010.5
20260504181602 78 0.0 0.0 0.00 0.00 0.00 32 1010.7
20260504181102 77 0.0 0.0 0.00 0.00 0.00 34 1010.6
20260504180604 77 0.0 0.0 0.00 0.00 0.00 33 1010.7
20260504175104 76 0.0 0.0 0.00 0.00 0.00 31 1010.9
20260504174604 77 0.0 0.0 0.00 0.00 0.00 33 1011.0
20260504174102 76 0.0 0.0 0.00 0.00 0.00 37 1011.0
20260504173602 76 0.0 0.0 0.00 0.00 0.00 35 1011.0
20260504173102 76 0.0 0.0 0.00 0.00 0.00 37 1011.1
20260504172603 76 0.0 0.0 0.00 0.00 0.00 31 1011.1
20260504172039 76 0.0 0.0 0.00 0.00 0.00 36 1011.2
20260504171540 76 0.0 0.0 0.00 0.00 0.00 33 1011.3
20260504171040 75 0.0 0.0 0.00 0.00 0.00 36 1011.4
20260504170537 74 0.0 0.0 0.00 0.00 0.00 32 1011.5
20260504151031 69 0.0 0.0 0.00 0.00 0.00 37 1012.8
20260504150530 69 0.0 0.0 0.00 0.00 0.00 39 1012.6
20260504130526 53 0.0 0.0 0.00 0.00 0.00 59 1013.4
20260504110500 46 0.0 0.0 0.00 0.00 0.00 77 1013.7
20260504100431 47 0.0 0.0 0.00 0.00 0.00 75 1013.7
20260504081431 44 0.0 0.0 0.00 0.00 0.00 84 1013.8
20260504080930 44 0.0 0.0 0.00 0.00 0.00 84 1013.8
20260504080431 44 0.0 0.0 0.00 0.00 0.00 84 1013.9
20260504045911 42 0.0 0.0 0.00 0.00 0.00 81 1014.5
20260504045412 42 0.0 0.0 0.00 0.00 0.00 80 1014.6
20260504044911 42 0.0 0.0 0.00 0.00 0.00 80 1014.5
20260504044411 42 0.0 0.0 0.00 0.00 0.00 79 1014.5
20260504043913 42 0.0 0.0 0.00 0.00 0.00 79 1014.4
20260504042410 43 0.0 0.0 0.00 0.00 0.00 78 1014.4
20260504041910 43 0.0 0.0 0.00 0.00 0.00 77 1014.4
20260504041411 43 0.0 0.0 0.00 0.00 0.00 76 1014.4
20260504035913 43 0.0 0.0 0.00 0.00 0.00 75 1014.4
20260504035410 44 0.0 0.0 0.00 0.00 0.00 74 1014.4
20260504034910 44 0.0 0.0 0.00 0.00 0.00 72 1014.5
20260504034409 44 0.0 0.0 0.00 0.00 0.00 70 1014.4
20260504033909 44 0.0 0.0 0.00 0.00 0.00 70 1014.4
20260504032909 44 0.0 0.0 0.00 0.00 0.00 70 1014.2
20260504032409 45 0.0 0.0 0.00 0.00 0.00 70 1014.2
20260504031909 45 0.0 0.0 0.00 0.00 0.00 70 1014.2
20260504030909 45 0.0 0.0 0.00 0.00 0.00 67 1014.2
20260504030409 46 0.0 0.0 0.00 0.00 0.00 66 1014.1
20260504025909 46 0.0 0.0 0.00 0.00 0.00 65 1014.0
20260504025410 46 0.0 0.0 0.00 0.00 0.00 65 1014.0
20260504024408 47 0.0 0.0 0.00 0.00 0.00 64 1013.8
20260504023908 47 0.0 0.0 0.00 0.00 0.00 63 1013.9
20260504023409 47 0.0 0.0 0.00 0.00 0.00 63 1013.9
20260504022908 47 0.0 0.0 0.00 0.00 0.00 62 1013.9
20260504022409 48 0.0 0.0 0.00 0.00 0.00 62 1013.8
20260504021908 48 0.0 0.0 0.00 0.00 0.00 61 1013.8
20260504021409 48 0.0 0.0 0.00 0.00 0.00 59 1013.8
20260504020407 49 0.0 0.0 0.00 0.00 0.00 56 1013.7
20260504015907 49 0.0 0.0 0.00 0.00 0.00 56 1013.8
20260504015407 49 0.0 0.0 0.00 0.00 0.00 55 1013.8
20260504013906 51 0.0 0.0 0.00 0.00 0.00 53 1013.6
20260504013407 51 0.0 0.0 0.00 0.00 0.00 52 1013.7
20260504012906 51 0.0 0.0 0.00 0.00 0.00 52 1013.7
20260504012406 51 0.0 0.0 0.00 0.00 0.00 51 1013.6
20260504011906 52 0.0 0.0 0.00 0.00 0.00 51 1013.6
20260504011407 52 0.0 0.0 0.00 0.00 0.00 52 1013.5
20260504010906 53 0.0 0.0 0.00 0.00 0.00 50 1013.5
20260504010406 53 0.0 0.0 0.00 0.00 0.00 48 1013.5
20260504005905 53 0.0 0.0 0.00 0.00 0.00 47 1013.5
20260504005405 54 0.0 0.0 0.00 0.00 0.00 47 1013.3
20260504004906 54 0.0 0.0 0.00 0.00 0.00 46 1013.4
20260504004405 55 0.0 0.0 0.00 0.00 0.00 47 1013.3
20260504003905 56 0.0 0.0 0.00 0.00 0.00 45 1013.3
20260504003405 56 0.0 0.0 0.00 0.00 0.00 44 1013.3
20260504002905 56 0.0 0.0 0.00 0.00 0.00 43 1013.2
20260504001904 57 0.0 0.0 0.00 0.00 0.00 39 1013.2
20260504001405 58 0.0 0.0 0.00 0.00 0.00 40 1013.1
20260504000904 58 0.0 0.0 0.00 0.00 0.00 38 1013.0
20260504000405 59 0.0 0.0 0.00 0.00 0.00 38 1013.0
20260503235904 59 0.0 0.0 0.00 0.00 0.00 36 1013.0
20260503235407 59 0.0 0.0 0.00 0.00 0.00 34 1013.0
20260503234904 60 0.0 0.0 0.00 0.00 0.00 32 1012.9
20260503234405 60 0.0 0.0 0.00 0.00 0.00 33 1012.8
20260503233906 60 0.0 0.0 0.00 0.00 0.00 32 1012.9
20260503233404 60 0.0 0.0 0.00 0.00 0.00 31 1012.8
20260503232903 60 0.0 0.0 0.00 0.00 0.00 31 1012.9
20260503232403 61 0.0 0.0 0.00 0.00 0.00 32 1012.7
20260503231906 61 0.0 0.0 0.00 0.00 0.00 30 1012.7
20260503231403 61 0.0 0.0 0.00 0.00 0.00 30 1012.7
20260503230905 62 0.0 0.0 0.00 0.00 0.00 30 1012.5
20260503230403 62 0.0 0.0 0.00 0.00 0.00 29 1012.6
20260503225403 62 0.0 0.0 0.00 0.00 0.00 28 1012.7
20260503224902 63 0.0 0.0 0.00 0.00 0.00 30 1012.7
20260503224402 63 0.0 0.0 0.00 0.00 0.00 29 1012.7
20260503223902 63 0.0 0.0 0.00 0.00 0.00 28 1012.7
20260503223403 64 0.0 0.0 0.00 0.00 0.00 28 1012.7
20260503222902 64 0.0 0.0 0.00 0.00 0.00 28 1012.8
20260503222402 64 0.0 0.0 0.00 0.00 0.00 27 1012.8
20260503221905 64 0.0 0.0 0.00 0.00 0.00 29 1012.8
20260503221402 64 0.0 0.0 0.00 0.00 0.00 28 1012.7
20260503220903 64 0.0 0.0 0.00 0.00 0.00 29 1012.9
20260503220402 64 0.0 0.0 0.00 0.00 0.00 28 1012.8
20260503215902 64 0.0 0.0 0.00 0.00 0.00 28 1012.8
20260503215402 64 0.0 0.0 0.00 0.00 0.00 29 1012.8
20260503214902 64 0.0 0.0 0.00 0.00 0.00 28 1012.8
20260503214403 64 0.0 0.0 0.00 0.00 0.00 27 1012.9
20260503213902 64 0.0 0.0 0.00 0.00 0.00 28 1012.9
20260503213402 64 0.0 0.0 0.00 0.00 0.00 26 1012.9
20260503212902 64 0.0 0.0 0.00 0.00 0.00 27 1013.0
20260503212401 65 0.0 0.0 0.00 0.00 0.00 26 1013.0
20260503211400 64 0.0 0.0 0.00 0.00 0.00 29 1012.9
20260503210900 64 0.0 0.0 0.00 0.00 0.00 29 1012.9
20260503210401 64 0.0 0.0 0.00 0.00 0.00 28 1013.0
20260503205901 64 0.0 0.0 0.00 0.00 0.00 27 1013.0
20260503205401 64 0.0 0.0 0.00 0.00 0.00 29 1013.0
20260503204900 64 0.0 0.0 0.00 0.00 0.00 28 1012.9
20260503202340 64 0.0 0.0 0.00 0.00 0.00 29 1013.0